Location: ??????
(55.2000°N, 38.3000°E)
Time: 09:22:49
(UTC+00:00)

Meteor 1-24 Rocket - Pass Details

Date: 15 November 2025
Orbit: 789 x 925 km, 81.3° (Epoch: 14 December)

Event Time Altitude Azimuth Distance (km) Brightness Sun altitude
Exits shadow 02:41:16 35° 262° (W) 1,321 4.2 -19.4°
Maximum altitude 02:42:35 41° 294° (WNW) 1,199 4.0 -19.2°
Drops below altitude 10° 02:47:43 10° 4° (N) 2,410 6.1 -18.5°
Sets 02:50:14 0° 12° (NNE) 3,331 6.9 -18.1°
